カタログに戻る

STARLINK-37321

運用中通信VLEO
NORAD 69198·PAYLOAD·🇺🇸 United States

打ち上げ May 26, 2026 から Vandenberg Space Force Base

Loading…

次のパス (今後24時間)

TLE

最新Source: CelesTrak SupGP

元期: Sep 14, 2026, 22:58 UTC

1 69198C 26114S   26257.95743056 -.00065701  00000+0 -19412-2 0  2574
2 69198  53.1573 139.5943 0001371  88.1878 345.3893 15.34422832    15

AllMySatでSTARLINK-37321をリアルタイム追跡

Download on the App Store